Location: *
(63.7279°N, 9.5350°E)
Time: 17:15:43
(UTC+00:00)

Daily predictions for brighter satellites

Satellite Brightness Start Highest point End
(mag) Time Altitude Azimuth Time Altitude Azimuth Time Altitude Azimuth
MetOp-A 4.4 18:19:01 10° SE 18:24:14 54° ENE 18:29:27 10° NNW
Cosmos 2366 rocket 4.4 18:18:29 10° NNW 18:24:40 50° ENE 18:30:51 10° SE
Cosmos 1980 4.0 18:19:50 10° NW 18:25:30 72° SW 18:31:08 10° SSE
FREGAT/IRIS 2.9 18:24:03 10° S 18:26:52 64° WSW 18:29:41 10° NNW
Cosmos 389 Rocket 2.4 18:24:03 10° NNW 18:27:31 67° ENE 18:30:56 10° SSE
ERBS 3.9 18:25:13 10° WSW 18:28:05 25° S 18:30:56 10° SE
Cosmos 1441 Rocket 3.9 18:24:47 10° SSE 18:28:12 33° E 18:31:38 10° NNE
NOSS 7 (H) 4.4 18:25:40 10° W 18:28:45 84° S 18:32:31 10° E
DMSP B5D1-3 4.5 18:26:59 10° NNE 18:32:06 69° ESE 18:37:11 10° S
SL-08 RB Rocket 3.9 18:27:38 10° SE 18:32:13 58° ENE 18:36:50 10° NNW
Cosmos 1850 Rocket 4.4 18:27:29 10° NW 18:32:35 50° NE 18:37:38 10° ESE
Cosmos 1674 3.4 18:32:09 10° N 18:35:40 36° ENE 18:39:08 10° SE
SL-8 Rocket 4.1 18:30:07 10° NNW 18:36:20 63° ENE 18:42:28 10° SSE
Cosmos 1626 Rocket 4.3 18:34:21 10° N 18:38:24 36° ENE 18:42:24 10° SE
COSMOS 2487 2.5 18:35:47 10° SW 18:39:18 84° WNW 18:42:50 10° NE
SKYMED 2 4.3 18:35:34 10° NNE 18:39:53 61° WNW 18:44:11 10° SW
SL-27 R/B 4.4 18:36:59 10° WSW 18:40:17 32° NW 18:43:33 10° NNE
Cosmos 1603 4.2 18:34:56 10° NW 18:40:29 53° NNE 18:46:03 10° ESE
Cosmos 1707 2.9 18:36:33 10° NNW 18:40:29 81° WSW 18:44:24 10° S
Meteor 1-4 Rocket 2.5 18:39:15 10° NNW 18:42:54 73° ENE 18:46:28 10° SSE
SL-16 R/B 2.3 18:40:07 10° NW 18:45:51 85° NE 18:51:34 10° SE
Resurs 1-3 3.6 18:41:30 10° SSE 18:45:54 73° ENE 18:50:18 10° NNW
SJ-6B 3.2 18:41:48 10° SSE 18:45:55 73° WSW 18:50:00 10° NNW
CZ-2C R/B 3.3 18:40:48 10° SE 18:46:06 66° ENE 18:51:41 10° NNW
SPOT 5 4.1 18:42:02 10° ESE 18:46:10 29° NE 18:50:29 10° NNW
GP-B 3.4 18:41:58 10° N 18:46:25 76° W 18:50:52 10° S
Resurs 01 Rocket 1.7 18:43:28 10° SE 18:47:52 64° ENE 18:52:19 10° NNW
Ariane Rocket 4.5 18:43:31 10° SSW 18:48:18 40° W 18:53:07 10° NNW
Okean 1 Rocket 3.2 18:44:31 10° S 18:48:46 54° E 18:53:04 10° NNE
Meteor 2-17 Rocket 4.4 18:44:11 10° NNW 18:50:21 79° ENE 18:56:26 10° SSE
KORONAS-FOTON 4.3 18:47:24 10° N 18:51:05 43° ENE 18:54:44 10° SE
Cosmos 407 Rocket 3.9 18:46:07 10° NW 18:51:14 63° WSW 18:56:18 10° SSE
Okean 2 Rocket 3.6 18:47:07 10° SSW 18:51:36 66° WNW 18:56:08 10° NNE
SL-14 R/B 4.4 18:48:11 10° N 18:51:44 28° ENE 18:54:56 12° ESE
COSMOS 2428 4.4 18:49:19 10° NW 18:54:20 33° WSW 18:59:19 10° S
Cosmos 2219 Rocket 3.8 18:49:46 10° NW 18:54:42 33° WSW 18:59:37 10° S
Cosmos 614 Rocket 4.5 18:49:46 10° NW 18:54:58 62° WSW 19:00:07 10° SSE
USA 186 2.8 18:52:20 10° S 18:55:41 52° WSW 18:59:04 10° NNW
Cosmos 1602 Rocket 4.1 18:54:04 10° N 18:58:16 42° ENE 19:02:12 11° SE
NOSS 2-1 (C) 3.4 18:56:42 10° WSW 19:00:29 73° SSE 19:05:22 10° ENE
Cosmos 1741 Rocket 4.2 18:55:36 10° NW 19:00:56 64° NE 19:05:51 12° SE
SPOT 1/Viking Rocket 4.2 18:58:12 11° ESE 19:02:46 41° NE 19:07:36 10° NNW
NOSS 2-1 (D) 3.4 18:59:52 10° WSW 19:03:40 74° SSE 19:08:34 10° E
NOSS 3-3 (A) 4.4 19:00:13 10° SSW 19:06:04 44° SE 19:12:40 10° ENE
NOSS 3-3 (C) 4.4 19:00:20 10° SSW 19:06:12 44° SE 19:12:46 10° ENE
Cosmos 1743 4.3 19:04:06 10° SW 19:07:47 41° WNW 19:11:31 10° N
CZ-2C R/B 3.9 19:06:34 10° NNE 19:10:51 22° E 19:14:19 13° SE
SPOT 3 Rocket 4.3 19:06:43 10° S 19:11:47 55° WSW 19:16:52 10° NNW
Cosmos 1954 Rocket 4.2 19:06:45 10° NW 19:12:02 74° WSW 19:17:14 10° SSE
Cosmos 1766 4.4 19:09:36 13° SE 19:12:13 24° E 19:15:25 10° NNE
Meteor 1-12 Rocket 4.2 19:06:31 10° SSW 19:12:14 85° ESE 19:17:56 10° NNE
Cosmos 1892 Rocket 3.9 19:09:48 10° NNW 19:14:17 72° WSW 19:18:44 10° S
Okean 1-7 Rocket 3.9 19:11:40 10° NNW 19:16:05 69° WSW 19:20:29 10° S
USA 234 3.6 19:10:20 12° ESE 19:16:21 51° S 19:22:43 10° WSW
Cosmos 2082 Rocket 3.3 19:11:20 10° W 19:16:51 46° NNW 19:22:23 10° ENE
Nadezhda 1 Rocket 4.0 19:11:30 10° SSW 19:17:35 89° ESE 19:23:46 10° NNE
IGS 5A 4.2 19:15:05 15° ESE 19:18:04 37° ENE 19:21:55 10° N
Meteor 1-15 Rocket 4.4 19:14:41 10° S 19:20:20 55° E 19:26:06 10° NNE
Cosmos 1975 4.2 19:16:35 10° SW 19:20:25 43° WNW 19:24:18 10° N
Timation 2 Rocket 4.0 19:14:16 10° SSW 19:20:37 59° SE 19:26:43 10° NE
Cosmos 1140 Rocket 4.1 19:16:11 10° NW 19:21:17 56° WSW 19:26:20 10° SSE
ADEOS Rocket 3.5 19:15:01 10° NNE 19:21:52 55° E 19:29:17 10° S
ERS-1 Rocket 3.4 19:20:29 15° SE 19:24:27 49° ENE 19:29:20 10° NNW
Spot 2 Rocket 3.5 19:20:11 10° SSE 19:25:15 81° ENE 19:30:19 10° NNW
Terra 2.7 19:23:11 16° ESE 19:26:28 35° NE 19:30:47 10° NNW
Cosmos 2219 3.8 19:22:03 10° S 19:27:10 34° ESE 19:32:18 10° NE
CZ-2C R/B 3.6 19:22:59 10° NNE 19:27:33 80° ESE 19:32:01 10° SSW
Cosmos 1437 Rocket 2.7 19:24:33 10° NNW 19:28:26 82° WSW 19:32:05 11° SSE
Cosmos 2227 Rocket 3.2 19:24:16 10° SSE 19:28:46 25° ESE 19:33:19 10° NE
RESURS DK-1 2.4 19:28:35 10° NW 19:32:47 83° SW 19:35:39 19° SE
COSMOS 2406 4.3 19:27:30 10° WNW 19:32:58 41° N 19:38:27 10° ENE
NOSS 7 (E) 4.4 19:31:15 10° W 19:34:26 80° S 19:36:52 20° ESE
Cosmos 1371 Rocket 4.5 19:32:15 10° S 19:37:12 40° ESE 19:42:12 10° NE
Cosmos 1833 4.2 19:31:48 10° SW 19:37:31 90° NW 19:43:13 10° NE
MetOp-B 4.1 19:33:44 11° SSE 19:38:54 89° ENE 19:44:19 10° NNW
Cosmos 1626 2.5 19:35:52 10° N 19:39:29 46° ENE 19:41:29 23° SE
ARGOS 4.0 19:34:18 10° S 19:39:31 51° W 19:44:49 10° NNW
SJ 16-02 3.8 19:36:15 10° WNW 19:39:42 21° NNW 19:43:09 10° NE
Cosmos 2297 Rocket 3.0 19:34:57 10° SSE 19:39:44 29° ESE 19:44:33 10° NE
Cosmos 1934 Rocket 4.4 19:34:56 10° NNW 19:40:49 47° ENE 19:45:03 19° SE
Meteor 1-24 Rocket 3.9 19:36:58 10° NNW 19:42:38 81° WSW 19:48:29 10° SSE
SAR-Lupe-2 4.1 19:39:08 10° NNE 19:42:43 62° WNW 19:46:16 10° SW
H-2A R/B 3.1 19:38:36 10° S 19:43:21 44° W 19:48:15 10° NNW
Cosmos 405 Rocket 2.6 19:41:27 10° S 19:45:05 57° ESE 19:48:47 10° NNE
ASTEX 1 4.1 19:41:24 10° N 19:46:13 58° WNW 19:51:01 10° SSW
NOSS 2-1 (E) 3.6 19:43:04 10° W 19:47:04 84° S 19:51:56 12° E
Cosmos 1544 4.0 19:45:13 10° SW 19:48:45 50° WNW 19:52:19 10° N
Cosmos 1461 3.1 19:46:06 10° SSW 19:49:50 40° SE 19:53:34 10° ENE
Meteor 2-12 Rocket 4.5 19:43:45 10° NNW 19:49:50 67° ENE 19:54:25 18° SSE
Cosmos 1943 3.3 19:44:45 10° NW 19:50:30 75° NE 19:54:24 21° ESE
Cosmos 1470 4.2 19:50:45 20° E 19:51:12 21° E 19:54:12 10° NE
Cosmos 1953 4.0 19:53:49 17° E 19:54:00 17° E 19:56:38 10° NE
Cosmos 2181 Rocket 4.0 19:49:46 10° S 19:56:02 78° E 20:02:27 10° NNE
Meteor 2-5 Rocket 4.4 19:51:03 10° NNW 19:56:41 57° W 20:02:23 10° S
Cosmos 968 Rocket 4.4 19:52:00 10° NW 19:56:55 40° NNE 20:00:34 17° E
Cosmos 2237 Rocket 3.9 19:55:20 10° NW 20:00:07 28° WSW 20:04:53 10° SSW
Cosmos 1241 Rocket 4.5 19:53:54 10° WNW 20:00:20 89° NNE 20:04:45 21° ESE
Cosmos 839 Rocket 4.2 19:54:35 10° W 20:01:19 75° N 20:06:41 14° E
Cosmos 1833 Rocket 3.9 19:56:23 10° WNW 20:01:43 40° N 20:07:02 10° ENE
ERBS 4.5 20:01:40 10° WSW 20:03:41 15° SSW 20:04:33 14° SSW
Cosmos 1441 Rocket 4.3 20:00:24 10° SW 20:04:06 46° WNW 20:07:45 10° NNE
Cosmos 1953 Rocket 4.0 20:00:52 10° NNW 20:05:18 50° ENE 20:07:26 27° SE
Cosmos 1544 Rocket 3.5 20:01:00 10° S 20:05:27 68° E 20:09:56 10° NNE
Cosmos 1455 Rocket 3.0 20:01:53 10° S 20:06:19 79° ESE 20:10:49 10° NNE
Cosmos 1805 3.3 20:04:51 20° S 20:07:23 58° E 20:11:15 10° NNE
USA 245 4.4 20:02:03 15° SSE 20:07:25 83° WSW 20:12:59 10° NNW
CZ-4C R/B 2.6 20:01:54 10° W 20:07:59 89° S 20:14:29 14° E
Nadezhda 3 Rocket 4.3 20:06:22 20° SSE 20:10:15 45° E 20:16:08 10° NNE
Cosmos 1271 Rocket 3.4 20:06:48 10° N 20:10:22 40° ENE 20:11:36 30° ESE
CARTOSAT-1 3.6 20:08:50 28° SE 20:11:03 67° ENE 20:15:22 10° NNW
Cosmos 1674 3.8 20:07:44 10° NNW 20:11:18 42° W 20:14:32 12° SSW
Cosmos 1850 Rocket 4.4 20:09:45 10° NW 20:14:52 59° WSW 20:18:18 21° S
MTI 4.2 20:12:17 10° NNE 20:15:13 38° E 20:15:13 38° E
Helios 1A 4.5 20:14:15 19° E 20:16:06 26° NE 20:19:38 10° N
Cosmos 1626 Rocket 4.2 20:12:12 10° NNW 20:16:26 53° W 20:19:56 14° S
Cosmos 1605 Rocket 4.3 20:10:08 10° NNW 20:16:28 55° ENE 20:20:09 25° SE
Cosmos 1726 4.5 20:18:35 11° ENE 20:18:35 11° ENE 20:19:16 10° ENE
ARGOS Delta rocket 4.5 20:16:28 26° ESE 20:19:06 48° ENE 20:23:58 10° N
Cosmos 1821 Rocket 4.0 20:13:35 10° NNW 20:19:52 90° W 20:24:15 20° SSE
EO 1 Del DPAF 4.3 20:18:20 10° NE 20:21:25 26° E 20:21:25 26° E
Cosmos 1825 Rocket 3.4 20:18:51 10° NNW 20:23:15 81° ENE 20:25:15 32° SSE
SPOT 5 2.9 20:21:03 27° SSE 20:23:45 86° ENE 20:28:52 10° NNW
Geosat 4.2 20:21:32 26° ESE 20:24:20 67° NE 20:29:22 10° NW
Resurs 01 Rocket 3.3 20:20:45 10° SSW 20:24:43 31° W 20:28:43 10° NNW
Cosmos 1603 3.8 20:19:17 10° NW 20:24:56 73° SW 20:28:05 27° SSE
MOS 1 Rocket 4.3 20:20:17 10° NNE 20:25:07 34° E 20:26:32 29° ESE
Meteor 1-22 Rocket 4.4 20:19:16 10° S 20:25:19 69° ESE 20:31:25 10° NNE
Cosmos 2228 4.2 20:25:28 25° E 20:25:51 26° E 20:29:30 10° NNE
CZ-2C R/B 4.4 20:21:22 10° SSW 20:26:20 39° W 20:31:35 10° NNW
SL-14 R/B 3.6 20:24:15 10° NNW 20:28:15 64° W 20:30:22 26° S
DMSP B5D2-2 4.0 20:23:15 10° NNE 20:28:35 75° ESE 20:33:46 11° SSW
SL-16 R/B 3.4 20:24:29 10° NW 20:29:37 36° WSW 20:33:46 15° S
Cosmos 1703 4.0 20:27:17 10° N 20:31:06 41° ENE 20:32:07 34° E
Cosmos 1758 Rocket 3.5 20:27:31 10° NNW 20:31:53 85° WSW 20:33:52 32° S
Landsat 7 4.0 20:29:41 24° S 20:32:33 70° WSW 20:37:21 10° NNW
Cosmos 2058 Rocket 4.4 20:35:21 23° E 20:35:30 23° E 20:39:00 10° NNE
Cosmos 2056 Rocket 3.5 20:30:48 10° SSW 20:36:13 71° ESE 20:41:36 10° NE
Cosmos 1602 Rocket 4.5 20:32:02 10° NNW 20:36:14 45° W 20:39:21 17° SSW
Cosmos 1242 Rocket 3.2 20:37:21 10° N 20:40:42 38° ENE 20:41:11 36° E
SPOT 1/Viking Rocket 3.8 20:38:51 23° S 20:42:04 64° WSW 20:47:14 10° NNW
Cosmos 1420 Rocket 4.2 20:41:55 26° S 20:44:36 49° ESE 20:49:46 10° NE
Cosmos 1606 Rocket 4.1 20:45:51 37° ESE 20:46:28 39° E 20:50:39 10° NNE
Cosmos 1766 3.5 20:44:57 16° SSW 20:48:00 68° WNW 20:51:56 10° NNE
Cosmos 1624 Rocket 3.9 20:43:17 10° SSW 20:48:30 82° SE 20:53:45 10° NE
NOSS 2-1 (C) 3.6 20:46:51 10° W 20:51:00 84° S 20:53:43 29° ESE
CZ-2C R/B 2.6 20:46:32 10° NNE 20:52:04 74° ESE 20:55:49 22° S
IGS 5A 4.0 20:51:33 28° SSW 20:53:29 52° W 20:57:35 10° NNW
Cosmos 2082 3.9 20:50:21 24° S 20:53:34 48° ESE 20:59:03 10° NE
NOSS 2-1 (D) 3.6 20:50:02 10° W 20:54:11 83° S 20:56:47 30° ESE
Cosmos 1486 Rocket 4.0 20:49:58 10° NW 20:55:14 84° NE 20:57:19 38° SE
NOSS 3-3 (A) 4.1 20:50:04 10° WSW 20:56:30 79° SSE 21:03:53 10° ENE
NOSS 3-3 (C) 4.1 20:50:10 10° WSW 20:56:36 79° SSE 21:03:59 10° ENE
Cosmos 1733 3.2 20:57:25 37° SSW 20:58:50 82° WNW 21:02:41 10° NNE
Cosmos 1184 Rocket 2.7 21:00:08 70° ENE 21:00:08 70° ENE 21:03:18 10° NNE
USA 234 3.7 20:57:41 31° SSE 21:00:15 44° SSW 21:06:29 10° W
Cosmos 2082 Rocket 3.3 20:56:34 10° WNW 21:02:02 42° N 21:07:29 10° E
ERS-1 Rocket 3.7 21:00:29 23° SSW 21:03:21 49° W 21:08:16 10° NNW
Terra 1.9 21:02:06 36° S 21:04:00 70° WSW 21:08:48 10° NNW
Thor Agena Rocket 3.8 21:00:21 10° NNE 21:05:31 49° ESE 21:06:55 40° SE
ADEOS Rocket 3.9 21:00:47 10° NNE 21:07:33 61° WNW 21:14:55 10° SW
Timation 2 Rocket 4.3 21:01:46 10° WSW 21:08:11 67° NNW 21:14:20 10° NE
ALOS 2 3.6 21:08:00 30° E 21:09:11 36° NE 21:13:14 10° N
RESURS DK-1 4.0 21:07:02 10° WNW 21:10:22 23° WSW 21:11:33 21° SW
Cosmos 2219 3.2 21:05:08 10° SW 21:10:56 88° NW 21:16:43 10° NE
Cosmos 1758 3.2 21:10:35 54° S 21:11:27 81° ESE 21:15:31 10° NNE
Cosmos 1802 Rocket 4.5 21:05:42 10° NNW 21:11:48 50° ENE 21:14:29 31° ESE
Cosmos 2227 Rocket 2.1 21:06:27 10° SSW 21:12:07 74° SE 21:17:49 10° NE
Cosmos 1174 4.0 21:07:43 10° WNW 21:12:45 72° SSW 21:13:32 56° SSE
Cosmos 1459 Rocket 4.2 21:07:53 10° NNW 21:13:52 55° ENE 21:16:13 35° ESE
Cosmos 1626 3.6 21:11:21 10° NNW 21:14:41 31° W 21:16:03 24° SW
COSMOS 2406 3.7 21:12:32 10° NW 21:18:15 57° NNE 21:21:34 25° E
Cosmos 1892 4.4 21:15:44 10° N 21:18:53 23° NE 21:19:36 21° ENE
Cosmos 1371 Rocket 4.3 21:13:50 10° SW 21:19:11 69° NW 21:24:35 10° NE
SJ 16-02 3.7 21:16:21 10° NW 21:19:46 21° NNE 21:23:10 10° ENE
Cosmos 1503 Rocket 4.0 21:14:40 10° NW 21:20:00 81° NE 21:21:41 44° SE
Cosmos 2297 Rocket 2.1 21:17:32 10° SW 21:23:13 83° SE 21:28:55 10° NE
Cosmos 1328 3.8 21:21:36 10° NNW 21:25:40 75° WSW 21:26:15 61° SSW
Cosmos 1934 Rocket 4.3 21:20:21 10° NNW 21:26:18 58° W 21:29:34 27° SSW
Cosmos 1470 2.8 21:26:06 57° SSW 21:26:51 81° WNW 21:30:51 10° NNE
Cosmos 1461 2.6 21:24:44 10° WSW 21:28:43 88° NNW 21:30:27 33° ENE
Cosmos 1953 2.1 21:29:31 72° SSE 21:29:49 79° ESE 21:33:53 10° NNE
Cosmos 1452 Rocket 3.4 21:28:21 32° SSW 21:30:49 75° ESE 21:36:07 10° NE
Spot 4 3.8 21:29:45 51° SE 21:30:59 81° ENE 21:35:53 10° NNW
Cosmos 1943 3.9 21:29:01 10° NW 21:34:24 43° WSW 21:36:12 33° SSW
Cosmos 2016 Rocket 4.3 21:29:03 10° NNW 21:35:04 55° ENE 21:37:17 37° ESE
Mayak -0.2 21:33:50 10° NNE 21:37:06 32° ENE 21:37:06 32° ENE
NOSS 2-1 (E) 3.8 21:33:15 10° WNW 21:37:38 75° SSW 21:39:14 46° SE
Meteor 1-11 4.2 21:33:07 10° NNW 21:38:44 76° WSW 21:40:35 44° S
Cosmos 968 Rocket 3.4 21:33:59 10° NW 21:39:14 84° SW 21:40:34 52° SSE
Cosmos 1726 Rocket 3.5 21:39:30 64° SSE 21:40:06 78° ESE 21:44:37 10° NNE
Cosmos 2263 Rocket 3.2 21:41:34 29° E 21:41:34 29° E 21:45:56 10° NE
Cosmos 2285 Rocket 4.1 21:37:11 10° NW 21:43:36 69° WSW 21:45:53 41° S
ATLAS CENTAUR R/B 4.0 21:46:45 12° E 21:46:45 12° E 21:47:19 10° ENE
Cosmos 1271 Rocket 3.6 21:42:53 10° NNW 21:46:25 38° W 21:46:45 37° WSW
Cosmos 1833 Rocket 3.3 21:41:07 10° NW 21:46:39 52° NNE 21:50:12 22° E
Okean 3 Rocket 4.1 21:46:17 10° N 21:50:39 48° ENE 21:51:17 44° E
Cosmos 1727 Rocket 4.1 21:49:23 44° SSE 21:51:09 59° E 21:57:17 10° NNE
Helios 1A 2.8 21:50:53 73° S 21:51:17 87° WSW 21:55:35 10° NNW
Cosmos 1726 2.7 21:53:06 47° ENE 21:53:06 47° ENE 21:56:05 10° NNE
Nadezhda 3 Rocket 4.4 21:51:04 18° SW 21:55:38 61° WNW 22:01:51 10° NNE
EO 1 Del DPAF 3.6 21:52:12 10° NNE 21:55:58 61° WNW 21:56:29 55° WSW
CZ-4C R/B 2.7 21:50:14 10° WNW 21:56:38 70° SSW 21:59:37 38° SE
Cosmos 1766 Rocket 4.2 21:52:59 10° N 21:57:16 44° ENE 21:57:51 41° E
In-Cosmos 22 Rocket 4.2 21:55:29 10° NNW 22:00:57 66° ENE 22:02:17 49° ESE
Cosmos 839 Rocket 3.9 21:55:02 10° WNW 22:01:23 72° SW 22:03:16 46° SSE
Meteor 2-10 4.1 22:00:34 54° SSE 22:01:28 63° ESE 22:06:43 10° NNE
Cosmos 1076 Rocket 3.3 21:57:46 10° NNW 22:02:07 86° ENE 22:02:23 79° SE
Geosat 4.4 22:01:42 44° SSW 22:02:29 47° WSW 22:07:22 10° NW
Cosmos 2228 3.1 22:02:17 58° SW 22:03:03 74° WNW 22:07:30 10° NNE
MOS 1 Rocket 3.7 21:58:28 10° NNE 22:03:48 72° WNW 22:05:50 37° SW
SL-24 R/B 4.5 22:00:15 10° NNE 22:03:59 53° WNW 22:05:02 40° WSW
Cosmos 1331 Rocket 4.0 22:04:08 55° SE 22:04:30 56° ESE 22:09:40 10° NE
Cosmos 2227 4.4 22:06:05 48° SE 22:06:17 48° ESE 22:11:43 10° NE
Cosmos 1300 4.3 22:07:49 25° ENE 22:07:49 25° ENE 22:10:15 10° NNE
Cosmos 1703 4.1 22:03:28 10° NNW 22:07:13 40° W 22:07:29 39° WSW
Cosmos 1777 Rocket 4.1 22:03:51 10° NW 22:09:10 70° NE 22:10:36 48° ESE
ERS-2 3.5 22:10:08 30° ENE 22:10:20 31° NE 22:13:36 10° N
SL-16 R/B 4.1 22:05:36 10° E 22:10:50 30° NE 22:16:07 10° NNW
Cosmos 2058 Rocket 3.0 22:12:37 72° SW 22:13:03 84° WNW 22:17:32 10° NNE
Cosmos 1339 Rocket 4.4 22:11:37 43° SSW 22:13:46 89° WNW 22:19:55 10° NNE
Cosmos 332 Rocket 4.4 22:14:39 41° E 22:14:39 41° E 22:18:39 10° NE
Cosmos 1242 Rocket 3.7 22:12:20 10° NNW 22:15:13 35° W 22:15:13 35° W
Cosmos 2058 2.8 22:11:46 10° NNW 22:15:53 84° NE 22:15:53 84° NE
Cosmos 2100 Rocket 4.0 22:09:33 10° NNW 22:15:57 76° W 22:17:58 46° S
YAOGAN 11 4.0 22:18:10 73° SSW 22:18:33 80° WSW 22:23:05 10° NNW
Cosmos 1354 Rocket 4.2 22:13:28 10° NW 22:18:40 57° WSW 22:19:24 52° SSW
Cosmos 1606 Rocket 4.3 22:22:58 37° WSW 22:24:18 49° WNW 22:28:40 10° N
Meteor 1-16 Rocket 4.3 22:26:09 43° SSW 22:28:10 80° WNW 22:33:59 10° NNE
Cosmos-2242 4.3 22:29:46 30° E 22:29:46 30° E 22:33:22 10° NNE
Cosmos 2151 3.0 22:25:16 10° NNW 22:29:30 69° ENE 22:29:30 69° ENE
Cosmos 1812 Rocket 3.7 22:30:56 58° E 22:30:56 58° E 22:35:00 10° NNE
Spot 1 4.0 22:30:35 74° E 22:30:47 76° ENE 22:35:15 10° NNW
CZ-2C R/B 4.0 22:27:05 10° NNE 22:32:08 38° NW 22:37:15 10° WSW
Cosmos 1725 Rocket 3.9 22:26:54 10° NNW 22:33:09 87° ENE 22:34:49 52° SSE
Cosmos 1864 Rocket 4.4 22:28:37 10° NNW 22:34:54 89° ENE 22:36:33 52° SSE
Cosmos 1110 Rocket 3.9 22:33:53 58° SSW 22:34:57 84° SE 22:40:20 10° NE
Cosmos 1898 Rocket 4.4 22:31:11 10° NW 22:36:11 45° NE 22:39:03 23° E
Cosmos 2082 4.0 22:32:08 11° WSW 22:37:37 69° NW 22:43:21 10° NE
Landsat 4 4.0 22:37:35 10° NNE 22:41:14 64° NW 22:41:14 64° NW
NOSS 2-1 (C) 4.3 22:37:01 10° WNW 22:41:01 50° SW 22:41:01 50° SW
Cosmos 1408 Rocket 3.6 22:37:48 10° NNW 22:42:14 65° ENE 22:42:23 65° E
Terra 3.8 22:40:58 16° WSW 22:42:39 19° W 22:45:59 10° NW
USA 234 4.3 22:45:01 26° SW 22:45:01 26° SW 22:49:51 10° W
Cosmos 2173 Rocket 4.3 22:38:16 10° NNW 22:44:32 59° W 22:46:25 43° SSW
NOSS 2-1 (D) 4.3 22:40:12 10° WNW 22:44:07 48° SW 22:44:07 48° SW
Thor Agena Rocket 4.2 22:39:48 10° NNE 22:44:56 52° WNW 22:47:29 28° WSW
ALOS 2 2.8 22:45:24 59° WSW 22:45:25 59° WSW 22:49:48 10° NNW
Cosmos 304 Rocket 4.4 22:46:45 43° E 22:46:45 43° E 22:50:52 10° NE
Cosmos 2082 Rocket 2.5 22:41:13 10° NW 22:46:57 67° NE 22:49:42 32° ESE
NOSS 3-3 (A) 4.2 22:40:49 10° W 22:47:33 87° S 22:55:14 10° E
NOSS 3-3 (C) 4.2 22:40:55 10° W 22:47:39 87° S 22:55:21 10° E
Helios 1B rocket 3.3 22:43:46 10° NNE 22:47:06 39° ENE 22:47:06 39° ENE
Cosmos 1825 3.0 22:44:20 10° N 22:47:47 44° NE 22:47:47 44° NE
Cosmos 1844 Rocket 3.9 22:52:36 26° ESE 22:52:36 26° ESE 22:57:04 10° NE
Cosmos 1892 3.0 22:51:10 10° NNW 22:54:35 66° NNW 22:54:35 66° NNW
Cosmos 2219 4.2 22:50:06 10° W 22:55:40 47° NNW 23:01:13 10° NE
Cosmos 1908 3.6 22:56:04 60° NW 22:56:04 60° NW 22:59:47 10° NNE
Cosmos 2227 Rocket 2.9 22:50:56 10° WSW 22:56:31 53° NNW 23:02:06 10° NE
Cosmos 1802 Rocket 4.3 22:51:27 10° NNW 22:57:35 58° W 22:59:18 44° SW
Cosmos 1459 Rocket 4.4 22:53:20 10° NNW 22:59:08 49° W 23:00:44 40° SW
SJ 16-02 2.7 22:55:21 10° NNW 22:59:31 37° NE 23:01:35 24° E
Cosmos 1408 3.2 22:56:28 10° NNW 22:59:30 53° NNE 22:59:30 53° NNE
COSMOS 2406 3.2 22:57:04 10° NW 23:02:49 67° SW 23:03:36 59° S
Cosmos 2061 Rocket 4.3 22:58:50 10° NNW 23:05:08 57° W 23:06:51 44° SW
Cosmos 1953 4.3 23:05:12 20° W 23:06:43 25° NW 23:10:05 10° N
Cosmos 2297 Rocket 3.0 23:02:13 10° W 23:07:44 50° NNW 23:13:15 10° NE
Cosmos 1461 3.6 23:04:01 10° W 23:06:49 44° WNW 23:06:49 44° WNW
Cosmos 1238 Rocket 3.2 23:07:49 10° NNW 23:12:06 74° ENE 23:12:29 69° ESE
DELTA 2 DEB (DPAF) 4.1 23:12:38 74° E 23:12:51 77° ENE 23:17:21 10° NNW
Cosmos 1743 Rocket 3.6 23:08:42 10° NNW 23:13:13 69° ENE 23:13:24 68° E
Mayak -0.9 23:09:24 10° NNE 23:13:28 55° WNW 23:13:40 54° WNW
Cosmos 1000 Rocket 4.4 23:12:07 52° SSW 23:13:44 85° WNW 23:19:58 10° NNE
Cosmos 371 Rocket 3.2 23:13:17 71° SW 23:13:48 84° NW 23:18:41 10° NE
Sich 1 4.3 23:11:38 10° N 23:15:43 34° ENE 23:16:53 29° E
Cosmos 2233 Rocket 3.9 23:09:39 10° NNW 23:15:49 79° W 23:17:17 55° S
MINOTAUR IV R/B 4.5 23:11:55 10° NW 23:16:26 88° NE 23:16:26 88° NE
Cosmos 2016 Rocket 4.4 23:14:37 10° NNW 23:20:28 49° W 23:21:53 41° SW
ATLAS CENTAUR R/B 2.2 23:22:56 47° ESE 23:22:56 47° ESE 23:26:37 10° ENE
Cosmos 2263 Rocket 2.1 23:23:14 57° SW 23:24:28 84° SE 23:30:11 10° NE
Cosmos 1805 Rocket 4.3 23:21:04 10° N 23:25:26 47° ENE 23:26:10 43° E
Cosmos 1607 4.3 23:27:13 42° SE 23:27:17 42° SE 23:33:02 10° ENE
Cosmos 1455 3.3 23:27:56 37° ENE 23:27:56 37° ENE 23:31:01 10° NNE
Cosmos 1726 3.7 23:27:37 28° WNW 23:27:55 28° WNW 23:31:13 10° N
H-2A R/B 3.5 23:26:33 25° E 23:28:00 32° NE 23:31:44 10° N
Okean 3 Rocket 4.4 23:24:32 10° NNW 23:28:39 40° W 23:28:39 40° W
SL-27 R/B 4.4 23:25:55 10° NNW 23:29:02 28° NE 23:30:16 22° ENE
Cosmos 1833 Rocket 2.5 23:25:18 10° NW 23:30:56 75° SW 23:31:51 61° SSE
CSL-04 DEB 4.4 23:32:43 74° NNW 23:32:43 74° NNW 23:36:28 10° NNW
Cosmos 1766 Rocket 4.2 23:30:59 10° NNW 23:34:59 43° W 23:34:59 43° W
Cosmos 1818 3.6 23:35:30 59° SSE 23:35:33 59° SE 23:40:57 10° ENE
Resurs 1-4 Rocket 4.2 23:32:20 10° NE 23:35:37 16° E 23:38:03 13° ESE
Cosmos 990 Rocket 4.0 23:33:04 10° NW 23:38:16 74° NE 23:39:47 46° ESE
Cosmos 2278 Rocket 3.9 23:37:30 18° ESE 23:38:23 19° ESE 23:42:16 10° ENE
STPSAT 2 (USA 217) 4.5 23:35:00 10° NW 23:39:31 90° SW 23:39:33 89° SSE
Cosmos 1300 3.3 23:42:47 53° NW 23:42:47 53° NW 23:46:14 10° NNE
ERS-2 3.1 23:44:46 41° NW 23:44:46 41° NW 23:47:26 10° NNW
Cosmos 1302 Rocket 4.1 23:42:42 50° WSW 23:43:58 71° NW 23:49:13 10° NE
CZ-4C R/B 3.4 23:38:35 10° WNW 23:44:42 37° SW 23:44:46 37° SW
USA 267 3.6 23:41:53 10° E 23:47:58 42° SSE 23:47:58 42° SSE
Cosmos 2227 4.4 23:48:00 35° WSW 23:50:24 69° NW 23:56:07 10° NE
Cosmos 2084 Rocket 3.9 23:52:17 52° E 23:52:17 52° E 23:55:42 10° E
Cosmos 2221 3.3 23:51:12 39° E 23:51:22 39° E 23:55:25 10° NNE
SL-16 R/B 2.8 23:50:33 30° SE 23:53:43 68° ENE 23:59:56 10° NNW
Cosmos 332 Rocket 4.1 23:53:19 46° W 23:54:28 60° NW 23:59:17 10° NE
MOZ.5/SAFIR/RUBIN 5/SL-8 4.3 23:53:41 40° ESE 23:55:02 55° ENE 23:59:36 10° NNW
